Flag for Canada Weather past 2 weeks in Summerside, Pr.Edward I, Canada

Now
4 °F

Frigid.


Feels Like: 4 °F
Forecast: 7 / 24 °F
Wind: No wind

Location: Summerside Airport

Current Time: Jan 30, 2015 at 2:02:27 AM

Latest Report: Jan 30, 2015 at 1:00 AM


Visibility: N/A

Pressure: 30.13 "Hg

Humidity: 83%

Dew point: 0 °F

Location of SummersideLocation

Historic Weather in Summerside — Graph

°F

Summerside temperature yesterday

Maximum temperature yesterday: 22 °F (at 2:00 PM)
Minimum temperature yesterday: 3 °F (at 10:00 PM)
Average temperature yesterday: 13 °F

Past Weeks' High & Low Weather Summary

 TemperatureHumidityPressure
High45 °F (Jan 19, 2:00 PM)100% (Jan 24, 7:00 PM)30.40 "Hg (Jan 24, 7:00 PM)
Low-7 °F (Jan 18, 2:00 AM)53% (Jan 17, 5:00 PM)28.52 "Hg (Jan 25, 3:00 AM)
Average20 °F78%29.85 "Hg
* Reported Jan 15 1:00 AM — Jan 30 1:00 AM, Summerside, Weather by CustomWeather, © 2014

Note: Actual official high and low records may vary slightly from our data, if they occured in-between our weather recording intervals... More about our weather records

Advertising

Summerside weather history for previous 24 hours

 ConditionsComfort  
Time TempWeatherWind HumidityBarometerVisibility
1:00 AM
Jan 30
4 °FFrigid.No wind83%30.13 "HgN/A
12:00 AM-1 °FFrigid.No wind84%30.15 "HgN/A
11:00 PM
Jan 29
6 °FFrigid.1 mph88%30.15 "HgN/A
10:00 PM3 °FFrigid.3 mph85%30.18 "HgN/A
9:00 PM4 °FFrigid.1 mph88%30.21 "HgN/A
8:00 PM4 °FFrigid.1 mph89%30.22 "HgN/A
7:00 PM8 °FFrigid.No wind84%30.23 "HgN/A
6:00 PM15 °FCold.1 mph84%30.23 "HgN/A
5:00 PM15 °FCold.No wind82%30.22 "HgN/A
4:00 PM19 °FCold.1 mph76%30.23 "HgN/A
3:00 PM19 °FCold.1 mph73%30.23 "HgN/A
2:00 PM22 °FCold.1 mph64%30.22 "HgN/A
1:00 PM19 °FCold.1 mph64%30.22 "HgN/A
12:00 PM17 °FCold.2 mph74%30.24 "HgN/A
11:00 AM15 °FCold.5 mph75%30.24 "HgN/A
10:00 AM12 °FCold.2 mph81%30.22 "HgN/A
9:00 AM11 °FCold.1 mph80%30.19 "HgN/A
8:00 AM7 °FFrigid.2 mph87%30.19 "HgN/A
7:00 AM6 °FFrigid.3 mph89%30.16 "HgN/A
6:00 AM7 °FFrigid.2 mph90%30.13 "HgN/A
5:00 AM10 °FCold.5 mph88%30.12 "HgN/A
4:00 AM12 °FCold.6 mph83%30.09 "HgN/A
3:00 AM16 °FCold.6 mph84%30.05 "HgN/A
2:00 AM17 °FCold.6 mph86%30.02 "HgN/A
Weather by CustomWeather, © 2014

See weather overviewHow to use our weather pages